[[{"header":{"parameterUnit":"m.s-1","parameterCategory":1,"la1":30.2991,"la2":30.254,"lo1":-89.0895,"lo2":-89.0444,"dy":0.0017,"dx":0.0017,"nx":28,"ny":28,"refTime":"2024-10-07T09:00:00:Z","depth":0,"parameterNumber":2,"parameterNumberName":"U-component_of_WINDS"},"data":[0,0,0,0,0,0,0,0,0,0,0,0,0,0,0,0,0,0,0,0,0,0,0,0,0,0,0,0,0,0,0,0,0,0,0,0,0,0,0,0,0,0,0,0,0,0,0,0,0,0,0,0,0,0,0,0,0,0,-0.9239,-0.9239,0,-0.9287,-0.9287,-0.9288,-0.927,-0.9269,-0.9268,-0.9267,-0.9316,-0.9319,-0.9321,0,0,0,0,0,0,0,0,0,0,0,0,0,-0.9131,-0.9133,-0.9239,-0.9239,-0.924,-0.9287,-0.9287,-0.9288,-0.9271,-0.9269,-0.9268,-0.9267,-0.9316,-0.9318,-0.9321,0,0,0,0,0,0,0,0,0,0,0,0,0,-0.9178,-0.9134,-0.9238,-0.9237,-0.9237,-0.9286,-0.9287,-0.9288,-0.9271,-0.9269,-0.9268,-0.9266,-0.9315,-0.9318,-0.9322,-0.9375,0,0,-0.9332,-0.9334,0,0,0,0,0,0,0,0,-0.9176,-0.9182,-0.9236,-0.9237,-0.9237,-0.9271,-0.9267,-0.9317,-0.9271,-0.9258,-0.9267,-0.9265,-0.9303,-0.9307,-0.932,-0.9378,-0.938,-0.9332,-0.9335,-0.9336,-0.9337,0,0,0,0,0,0,0,-0.9172,-0.918,-0.9258,-0.9237,-0.9238,-0.9233,-0.9238,-0.9277,-0.9289,-0.9259,-0.9258,-0.9264,-0.9303,-0.9316,-0.9321,-0.938,-0.9332,-0.9335,-0.9338,-0.9339,-0.9485,-0.9487,0,0,0,0,0,0,-0.9169,-0.9178,-0.9256,-0.9259,-0.9202,-0.9237,-0.9242,-0.9262,-0.9288,-0.9291,-0.9265,-0.9263,-0.9311,-0.9317,-0.9322,-0.9387,-0.9336,-0.9339,-0.9341,-0.9483,-0.9486,-0.9487,0,0,0,0,0,0,-0.9167,-0.9176,-0.9254,-0.9218,-0.9228,-0.924,-0.9262,-0.9264,-0.9277,-0.9293,-0.9295,-0.9277,-0.931,-0.9317,-0.9362,-0.9389,-0.9341,-0.9344,-0.9481,-0.9484,-0.9487,-0.9518,0,0,0,0,0,0,-0.9164,-0.9175,-0.9196,-0.9219,-0.923,-0.9294,-0.9264,-0.9266,-0.9283,-0.9281,-0.9305,-0.9307,-0.9309,-0.9357,-0.9366,-0.9393,-0.9347,-0.9479,-0.9482,-0.9486,-0.9515,-0.9522,-0.9527,0,0,0,0,0,-0.916,-0.9203,-0.9197,-0.9207,-0.9256,-0.9295,-0.9302,-0.9303,-0.9286,-0.9307,-0.9316,-0.9306,-0.9384,-0.9362,-0.9371,-0.94,-0.9477,-0.9481,-0.9485,-0.9512,-0.952,-0.9527,0,0,0,0,0,0,-0.9184,-0.9206,-0.92,-0.9252,-0.9272,-0.9292,-0.9319,-0.9312,-0.9338,-0.9334,-0.9335,-0.9341,-0.9387,-0.9398,-0.9372,-0.9453,-0.9428,-0.9434,-0.9445,-0.9453,-0.9459,-0.9456,-0.935,0,0,0,0,0,-0.9195,-0.9225,-0.9243,-0.9287,-0.9297,-0.9306,-0.9324,-0.9323,-0.9344,-0.9352,-0.9366,-0.9386,-0.9415,-0.9434,-0.9462,-0.9516,-0.9521,-0.954,-0.9546,-0.9551,-0.9557,-0.9586,-0.9595,-0.9501,-0.9501,-0.9501,0,0,-0.9219,-0.9235,-0.9254,-0.9292,-0.9308,-0.9339,-0.9314,-0.9348,-0.9371,-0.9358,-0.9401,-0.9411,-0.9434,-0.9484,-0.9506,-0.9494,-0.9584,-0.9556,-0.956,-0.9563,-0.9591,-0.96,-0.9608,-0.9504,-0.9503,-0.9503,0,0,-0.9279,-0.9293,-0.9332,-0.9348,-0.9371,-0.9377,-0.9386,-0.9408,-0.9414,-0.9458,-0.9448,-0.9475,-0.9525,-0.9542,-0.9557,-0.9622,-0.9614,-0.9631,-0.9664,-0.9693,-0.97,-0.9707,-0.9731,-0.9739,-0.9636,-0.9636,-0.9636,0,-0.9305,-0.9352,-0.9352,-0.9388,-0.9405,-0.9393,-0.9432,-0.9448,-0.9479,-0.9491,-0.9477,-0.9539,-0.9554,-0.9607,-0.9623,-0.9635,-0.9646,-0.9629,-0.9699,-0.9706,-0.9712,-0.9735,-0.9744,-0.9638,-0.9638,-0.9638,-0.9637,0,-0.9384,-0.9417,-0.9445,-0.9476,-0.9496,-0.9533,-0.9539,-0.9559,-0.9556,-0.9563,-0.9608,-0.9624,-0.9655,-0.9667,-0.9665,-0.9721,-0.9712,-0.9699,-0.9674,-0.9723,-0.9745,-0.9753,-0.9641,-0.964,-0.964,-0.9639,0,0,-0.9462,-0.9492,-0.9502,-0.9516,-0.9541,-0.9566,-0.9602,-0.9632,-0.965,-0.9671,-0.9702,-0.9744,-0.9731,-0.9748,-0.9747,-0.9772,-0.9823,-0.9755,-0.9756,-0.9768,-0.9886,-0.9898,-0.9908,-0.9817,-0.9819,-0.982,-0.9885,0,-0.9524,-0.9588,-0.9589,-0.9648,-0.9678,-0.9667,-0.9698,-0.9717,-0.9724,-0.975,-0.9758,-0.9788,-0.9768,-0.9779,-0.9803,-0.9812,-0.9847,-0.9807,-0.9846,-0.9848,-0.9842,-0.9919,-0.9931,-0.9991,-0.9893,-0.9894,-0.9895,0,-0.9606,-0.9631,-0.9692,-0.9713,-0.9725,-0.9754,-0.9781,-0.9807,-0.9827,-0.983,-0.9849,-0.9844,-0.9881,-0.9853,-0.9904,-0.9876,-0.9892,-0.9899,-0.9901,-0.9906,-0.9876,-0.9927,-1.001,-1.002,-0.9908,-0.9907,-0.9906,0,-0.9658,-0.9706,-0.9749,-0.9761,-0.9786,-0.9806,-0.9817,-0.9836,-0.9854,-0.9877,-0.9889,-0.9917,-0.9932,-0.9953,-0.9956,-0.9936,-1.0007,-0.998,-1.0011,-1.0011,-1.0028,-1.0027,-1.0116,-1.0036,-1.0036,-1.0036,-1.0035,0,-0.9729,-0.9767,-0.9773,-0.98,-0.9842,-0.9842,-0.9884,-0.9894,-0.991,-0.9939,-0.993,-0.9956,-0.9958,-0.9985,-0.9987,-1.0029,-1.0035,-1.0039,-1.004,-1.0041,-1.0041,-1.0052,-1.0049,-1.0038,-1.0037,-1.0037,-1.0037,0,-0.9794,-0.98,-0.9846,-0.9865,-0.9871,-0.9902,-0.9918,-0.9943,-0.9949,-0.9985,-0.9993,-1.0002,-1.0034,-1.0038,-1.0075,-1.0076,-1.0126,-1.0122,-1.012,-1.012,-1.0151,-1.0149,-1.0252,-1.0266,-1.0175,-1.0176,-1.0177,0,-0.984,-0.9869,-0.9891,-0.991,-0.9922,-0.9951,-0.997,-0.997,-0.999,-1.0015,-1.0037,-1.0067,-1.0092,-1.0143,-1.0153,-1.018,-1.0177,-1.0211,-1.0181,-1.0182,-1.0179,-1.0178,-1.0181,-1.0218,-1.0219,-1.0219,-1.022,0,-0.992,-0.9921,-0.9948,-0.9976,-0.9998,-1.002,-1.004,-1.0056,-1.0059,-1.0081,-1.0113,-1.0132,-1.0169,-1.02,-1.0227,-1.0238,-1.023,-1.0229,-1.0238,-1.0241,-1.0239,-1.0241,-1.0137,-1.0227,-1.0227,-1.0226,-1.0226,-1.0225,-0.9978,-1.0004,-1.0024,-1.0054,-1.0069,-1.0088,-1.0113,-1.0122,-1.0149,-1.0179,-1.0177,-1.0213,-1.0232,-1.0268,-1.0281,-1.0308,-1.0297,-1.031,-1.0313,-1.0317,-1.032,-1.0233,-1.0313,-1.0313,-1.0312,-1.0312,-1.0312,0,-1.0059,-1.0071,-1.0099,-1.0128,-1.0151,-1.0141,-1.0163,-1.0183,-1.0215,-1.0233,-1.0257,-1.0294,-1.0323,-1.0335,-1.0363,-1.0383,-1.038,-1.0391,-1.039,-1.0393,-1.0328,-1.0318,-1.0393,-1.0393,-1.0393,-1.0393,-1.0393,-1.0393,-1.0104,-1.0148,-1.0151,-1.0201,-1.0212,-1.0247,-1.0261,-1.0278,-1.0293,-1.0335,-1.0359,-1.0366,-1.0382,-1.0411,-1.0438,-1.044,-1.0451,-1.0464,-1.0465,-1.0405,-1.0397,-1.0389,-1.038,-1.0466,-1.0466,-1.0527,-1.0528,-1.0528]},{"header":{"parameterUnit":"m.s-1","parameterCategory":1,"la1":30.2991,"la2":30.254,"lo1":-89.0895,"lo2":-89.0444,"dy":0.0017,"dx":0.0017,"nx":28,"ny":28,"refTime":"2024-10-07T09:00:00:Z","depth":0,"parameterNumber":3,"parameterNumberName":"V-component_of_WINDS"},"data":[0,0,0,0,0,0,0,0,0,0,0,0,0,0,0,0,0,0,0,0,0,0,0,0,0,0,0,0,0,0,0,0,0,0,0,0,0,0,0,0,0,0,0,0,0,0,0,0,0,0,0,0,0,0,0,0,0,0,-5.8009,-5.801,0,-5.8097,-5.8098,-5.8099,-5.8017,-5.8014,-5.8011,-5.8008,-5.8093,-5.8098,-5.8103,0,0,0,0,0,0,0,0,0,0,0,0,0,-5.7765,-5.777,-5.8009,-5.801,-5.8011,-5.8097,-5.8098,-5.8099,-5.8018,-5.8014,-5.801,-5.8006,-5.8091,-5.8097,-5.8104,0,0,0,0,0,0,0,0,0,0,0,0,0,-5.7864,-5.7772,-5.8008,-5.7981,-5.7979,-5.8096,-5.8098,-5.8099,-5.8019,-5.8014,-5.8009,-5.8004,-5.8089,-5.8097,-5.8104,-5.8252,0,0,-5.8129,-5.8132,0,0,0,0,0,0,0,0,-5.7858,-5.7873,-5.7984,-5.7983,-5.7981,-5.8041,-5.8043,-5.815,-5.802,-5.8004,-5.8008,-5.8002,-5.8079,-5.8088,-5.8115,-5.8256,-5.8259,-5.8129,-5.8134,-5.8138,-5.814,0,0,0,0,0,0,0,-5.7851,-5.7868,-5.8043,-5.7985,-5.7984,-5.7962,-5.7971,-5.8063,-5.8067,-5.8005,-5.7999,-5.8011,-5.8077,-5.8107,-5.8116,-5.8261,-5.8129,-5.8136,-5.8141,-5.8144,-5.8527,-5.8532,0,0,0,0,0,0,-5.7848,-5.7863,-5.804,-5.8046,-5.7907,-5.7971,-5.798,-5.8027,-5.8066,-5.8068,-5.8015,-5.8007,-5.8096,-5.8107,-5.8119,-5.8294,-5.8138,-5.8145,-5.815,-5.8521,-5.8528,-5.8534,0,0,0,0,0,0,-5.7843,-5.7865,-5.8037,-5.7953,-5.7973,-5.798,-5.8033,-5.8031,-5.8061,-5.8074,-5.8074,-5.8045,-5.8093,-5.8108,-5.822,-5.8296,-5.8149,-5.8156,-5.8515,-5.8523,-5.8531,-5.8646,0,0,0,0,0,0,-5.7837,-5.7864,-5.7921,-5.7955,-5.7978,-5.8138,-5.8038,-5.8036,-5.8075,-5.8065,-5.8102,-5.8104,-5.809,-5.8208,-5.8228,-5.8304,-5.8162,-5.8508,-5.8519,-5.8528,-5.8636,-5.8657,-5.8676,0,0,0,0,0,-5.7828,-5.7949,-5.7924,-5.7946,-5.805,-5.8143,-5.8156,-5.8139,-5.8082,-5.8139,-5.8147,-5.8102,-5.8284,-5.822,-5.8241,-5.8322,-5.8503,-5.8516,-5.8527,-5.8627,-5.8653,-5.8675,0,0,0,0,0,0,-5.7921,-5.7953,-5.7926,-5.8061,-5.81,-5.8129,-5.82,-5.8168,-5.8222,-5.821,-5.8186,-5.8195,-5.8313,-5.8328,-5.8256,-5.8466,-5.8384,-5.8401,-5.8453,-5.8478,-5.8497,-5.8491,-5.8169,0,0,0,0,0,-5.7958,-5.8032,-5.8055,-5.8172,-5.8193,-5.8194,-5.8233,-5.8217,-5.8256,-5.8271,-5.8288,-5.8326,-5.8391,-5.8435,-5.8496,-5.8637,-5.8644,-5.8703,-5.8723,-5.8739,-5.8754,-5.883,-5.8856,-5.8573,-5.8573,-5.8573,0,0,-5.8033,-5.806,-5.8108,-5.8191,-5.8219,-5.8296,-5.8208,-5.8292,-5.8348,-5.8283,-5.8391,-5.8405,-5.8445,-5.8573,-5.8629,-5.8589,-5.8834,-5.8755,-5.8768,-5.8774,-5.8845,-5.8872,-5.8896,-5.8582,-5.858,-5.8579,0,0,-5.821,-5.8238,-5.8339,-5.837,-5.8414,-5.8414,-5.8438,-5.8473,-5.848,-5.8588,-5.8541,-5.8606,-5.872,-5.8751,-5.8782,-5.8971,-5.8932,-5.8991,-5.9096,-5.9171,-5.9193,-5.9212,-5.928,-5.9305,-5.9006,-5.9006,-5.9007,0,-5.8298,-5.8413,-5.8394,-5.8483,-5.8521,-5.8468,-5.8569,-5.8599,-5.8661,-5.8687,-5.8641,-5.8783,-5.8807,-5.8941,-5.8987,-5.9014,-5.904,-5.8987,-5.9191,-5.9211,-5.9229,-5.9293,-5.9319,-5.9013,-5.9013,-5.9012,-5.9011,0,-5.8519,-5.8599,-5.8675,-5.8739,-5.8785,-5.8879,-5.8874,-5.8922,-5.8902,-5.8906,-5.9016,-5.9043,-5.9109,-5.9139,-5.9119,-5.9271,-5.9244,-5.9195,-5.9112,-5.9263,-5.9324,-5.9348,-5.9023,-5.9021,-5.9019,-5.9017,0,0,-5.8757,-5.881,-5.8838,-5.8867,-5.8913,-5.8973,-5.9065,-5.9131,-5.9173,-5.9217,-5.9293,-5.9391,-5.9346,-5.9381,-5.9364,-5.9429,-5.9578,-5.9372,-5.9372,-5.941,-5.9747,-5.9784,-5.9813,-5.9552,-5.9557,-5.956,-5.9743,0,-5.8936,-5.9098,-5.9084,-5.9236,-5.931,-5.9261,-5.934,-5.9376,-5.9382,-5.9444,-5.945,-5.952,-5.9455,-5.9476,-5.9539,-5.9547,-5.9645,-5.9533,-5.9621,-5.9625,-5.9614,-5.9844,-5.9884,-6.0055,-5.9767,-5.9771,-5.9774,0,-5.9167,-5.9222,-5.9383,-5.9418,-5.9448,-5.952,-5.958,-5.964,-5.9679,-5.9679,-5.9719,-5.9691,-5.9782,-5.9697,-5.9821,-5.9745,-5.978,-5.9789,-5.9795,-5.9803,-5.9709,-5.9859,-6.011,-6.0136,-5.981,-5.9807,-5.9805,0,-5.9326,-5.944,-5.955,-5.9576,-5.962,-5.9672,-5.9692,-5.9726,-5.9767,-5.9819,-5.9845,-5.9905,-5.9939,-5.9986,-5.9974,-5.9913,-6.0101,-6.0015,-6.0103,-6.0104,-6.0145,-6.0143,-6.0406,-6.0167,-6.0167,-6.0166,-6.0166,0,-5.9528,-5.9628,-5.9623,-5.9691,-5.9801,-5.9783,-5.9892,-5.9906,-5.9937,-6.0006,-5.9966,-6.0031,-6.0012,-6.0076,-6.0067,-6.0171,-6.0186,-6.0188,-6.0185,-6.0192,-6.0192,-6.0215,-6.0203,-6.0173,-6.0171,-6.017,-6.0169,0,-5.9725,-5.9725,-5.9842,-5.9875,-5.9885,-5.9965,-5.9992,-6.0055,-6.0058,-6.0146,-6.0165,-6.017,-6.0243,-6.0236,-6.0317,-6.0312,-6.0441,-6.0423,-6.0429,-6.0425,-6.0514,-6.0506,-6.0801,-6.0839,-6.0575,-6.0578,-6.058,0,-5.9854,-5.993,-5.9971,-6.0016,-6.004,-6.0112,-6.0154,-6.0139,-6.0184,-6.0235,-6.0292,-6.0362,-6.0417,-6.0536,-6.0545,-6.0607,-6.0591,-6.069,-6.06,-6.0605,-6.0593,-6.0589,-6.0596,-6.0708,-6.0711,-6.0713,-6.0715,0,-6.0084,-6.0081,-6.0144,-6.0208,-6.026,-6.0309,-6.0353,-6.0391,-6.038,-6.0433,-6.0509,-6.0552,-6.0636,-6.0705,-6.0764,-6.0783,-6.0748,-6.0743,-6.0767,-6.0776,-6.0777,-6.0778,-6.0478,-6.0737,-6.0735,-6.0733,-6.0732,-6.0731,-6.0251,-6.0317,-6.0357,-6.0429,-6.0461,-6.0504,-6.0566,-6.0577,-6.0641,-6.0709,-6.0696,-6.0781,-6.0817,-6.0893,-6.0918,-6.0983,-6.0947,-6.0981,-6.0989,-6.0998,-6.1009,-6.0766,-6.0993,-6.0992,-6.0992,-6.0991,-6.0991,0,-6.048,-6.0503,-6.057,-6.0635,-6.0691,-6.0654,-6.0702,-6.0751,-6.0827,-6.0865,-6.0921,-6.1007,-6.1075,-6.109,-6.1154,-6.1203,-6.1188,-6.122,-6.1217,-6.1222,-6.1037,-6.1011,-6.1231,-6.1231,-6.1231,-6.1231,-6.1231,-6.1231,-6.0606,-6.0715,-6.0717,-6.0842,-6.0863,-6.0948,-6.0978,-6.1017,-6.1048,-6.1147,-6.1204,-6.1214,-6.1242,-6.1308,-6.1368,-6.137,-6.1396,-6.1435,-6.1431,-6.1259,-6.1235,-6.1212,-6.1187,-6.1441,-6.1441,-6.161,-6.1612,-6.1613]}]]